Track STARLINK-4254 now! 10-day predictions STARLINK-4254 is classified as:
1 52998U 22076N 22224.83335648 -.00003886 00000-0 -23254-4 0 9999 2 52998 53.2173 200.0043 0002642 30.2210 221.3965 15.73206343 6218